FW7734 Weather Reports


Display with metric or nautical units.
time (UTC)temp
F
wind
direction
speed
MPH
gust
MPH
rain 1hr
in
rain 24hr
in
rain mn
in
humidity
%
barometer
mb
20260506211456 48 345 7.0 8.0 0.00 0.64 0.64 98 1009.3
20260506210949 49 338 4.0 6.0 0.00 0.64 0.64 99 1009.3
20260506210445 49 346 5.0 7.0 0.00 0.64 0.64 99 1009.1
20260506205942 49 330 5.0 6.0 0.00 0.64 0.64 99 1009.4
20260506205438 50 333 4.0 5.0 0.00 0.64 0.64 99 1009.0
20260506204934 50 350 2.0 2.0 0.00 0.64 0.64 99 1009.0
20260506204432 50 339 6.0 7.0 0.00 0.64 0.64 98 1008.5
20260506203929 50 16 3.0 5.0 0.00 0.64 0.64 98 1008.7
20260506203427 50 2 5.0 6.0 0.00 0.64 0.64 98 1008.5
20260506202923 51 314 6.0 8.0 0.00 0.64 0.64 98 1008.7
20260506202421 51 5 6.0 8.0 0.00 0.64 0.64 98 1008.4
20260506201917 51 337 4.0 5.0 0.00 0.64 0.64 99 1008.2
20260506201414 51 45 5.0 7.0 0.00 0.64 0.64 98 1008.2
20260506200911 52 2 7.0 8.0 0.00 0.64 0.64 98 1008.2
20260506200407 53 1 3.0 5.0 0.00 0.64 0.64 98 1008.4
20260506195904 53 347 9.0 10.0 0.00 0.64 0.64 98 1008.3
20260506195401 55 319 9.0 11.0 0.00 0.64 0.64 99 1008.2
20260506194858 59 357 10.0 14.0 0.07 0.64 0.64 98 1007.5
20260506194354 59 93 1.0 2.0 0.00 0.63 0.63 99 1007.5
20260506193852 59 116 1.0 1.0 0.00 0.63 0.63 99 1007.6
20260506193349 59 123 2.0 3.0 0.00 0.63 0.63 99 1007.4
20260506192845 58 128 3.0 3.0 0.00 0.63 0.63 99 1007.4
20260506192342 59 90 1.0 1.0 0.00 0.63 0.63 99 1007.4
20260506191839 59 127 2.0 2.0 0.00 0.63 0.63 99 1007.4
20260506191335 58 101 1.0 1.0 0.00 0.63 0.63 99 1007.5
20260506190832 59 115 3.0 3.0 0.00 0.63 0.63 99 1007.7
20260506190328 58 85 1.0 1.0 0.00 0.63 0.63 99 1007.4
20260506185825 58 148 4.0 5.0 0.00 0.63 0.63 99 1007.6
20260506185322 58 132 3.0 3.0 0.00 0.63 0.63 99 1007.6
20260506184819 58 140 3.0 3.0 0.00 0.63 0.63 99 1007.7
20260506184317 58 114 3.0 3.0 0.00 0.63 0.63 99 1007.7
20260506183814 58 175 4.0 5.0 0.00 0.63 0.63 99 1008.0
20260506183309 58 127 3.0 3.0 0.00 0.63 0.63 99 1008.0
20260506182806 58 107 3.0 3.0 0.00 0.63 0.63 99 1008.0
20260506182306 58 96 3.0 3.0 0.00 0.63 0.63 99 1007.6
20260506181801 58 124 5.0 6.0 0.00 0.63 0.63 99 1007.8
20260506181259 58 134 2.0 2.0 0.00 0.63 0.63 99 1007.6
20260506180756 58 190 4.0 5.0 0.00 0.63 0.63 99 1007.8
20260506180251 58 154 4.0 5.0 0.00 0.63 0.63 99 1007.7
20260506175748 58 171 4.0 6.0 0.00 0.63 0.63 99 1007.7
20260506175245 58 121 2.0 2.0 0.00 0.63 0.63 99 1007.8
20260506174742 58 111 7.0 9.0 0.00 0.63 0.63 99 1008.0
20260506174239 58 151 4.0 5.0 0.00 0.63 0.63 99 1007.7
20260506173737 58 111 2.0 2.0 0.00 0.63 0.63 99 1008.0
20260506173234 58 152 5.0 6.0 0.00 0.63 0.63 99 1008.0
20260506172730 58 156 3.0 3.0 0.05 0.63 0.63 99 1007.8
20260506172227 57 121 3.0 3.0 0.12 0.63 0.63 99 1008.0
20260506171725 57 134 2.0 2.0 0.07 0.62 0.62 99 1008.1
20260506171222 57 210 3.0 3.0 0.07 0.61 0.61 99 1008.2
20260506170719 57 177 4.0 5.0 0.07 0.61 0.61 99 1008.1
20260506170216 57 135 4.0 5.0 0.05 0.60 0.60 99 1008.1
20260506165715 57 107 3.0 5.0 0.05 0.60 0.60 99 1008.3
20260506165211 57 114 3.0 3.0 0.00 0.59 0.59 99 1008.4
20260506164708 57 118 3.0 3.0 0.00 0.59 0.59 99 1008.4
20260506164205 57 89 5.0 6.0 0.00 0.59 0.59 99 1008.0
20260506163701 57 135 2.0 2.0 0.00 0.59 0.59 99 1008.3
20260506163156 57 194 5.0 6.0 0.00 0.59 0.59 99 1008.3
20260506162653 57 128 5.0 6.0 0.00 0.59 0.59 99 1008.2
20260506162151 57 129 5.0 8.0 0.00 0.59 0.59 99 1008.2
20260506161648 57 154 3.0 5.0 0.07 0.59 0.59 99 1008.4
20260506161144 57 144 3.0 3.0 0.07 0.59 0.59 99 1008.3
20260506160642 57 132 4.0 5.0 0.05 0.58 0.58 99 1008.2
20260506160138 57 128 3.0 3.0 0.05 0.58 0.58 99 1008.4
20260506155638 57 95 5.0 7.0 0.12 0.57 0.57 99 1008.5
20260506155134 57 119 2.0 2.0 0.17 0.52 0.52 99 1008.5
20260506153236 57 110 4.0 5.0 0.12 0.51 0.51 99 1008.7
20260506152733 57 117 2.0 2.0 0.12 0.50 0.50 99 1008.6
20260506152230 56 99 2.0 2.0 0.14 0.49 0.49 99 1008.7
20260506151730 56 108 3.0 3.0 0.12 0.48 0.48 99 1008.9
20260506151225 56 91 2.0 2.0 0.12 0.47 0.47 99 1008.5
20260506150722 56 141 3.0 3.0 0.12 0.46 0.46 99 1008.5
20260506150219 56 154 3.0 3.0 0.12 0.45 0.45 99 1008.3
20260506145716 56 129 3.0 3.0 0.12 0.44 0.44 99 1008.4
20260506145213 56 91 1.0 1.0 0.17 0.43 0.43 99 1008.2
20260506144710 56 115 3.0 3.0 0.19 0.42 0.42 99 1008.3
20260506144207 56 110 3.0 3.0 0.07 0.40 0.40 99 1008.6
20260506143705 56 101 1.0 2.0 0.00 0.39 0.39 99 1008.5
20260506143202 56 131 2.0 2.0 0.00 0.39 0.39 99 1008.4
20260506142700 56 99 0.0 0.0 0.05 0.39 0.39 99 1008.4
20260506142158 55 112 2.0 2.0 0.05 0.39 0.39 99 1008.1
20260506141655 55 133 2.0 3.0 0.00 0.38 0.38 99 1008.3
20260506141153 55 165 4.0 5.0 0.07 0.38 0.38 99 1008.2
20260506140651 55 140 6.0 8.0 0.12 0.38 0.38 99 1008.2
20260506140148 55 89 2.0 2.0 0.12 0.37 0.37 99 1008.5
20260506135645 55 103 0.0 0.0 0.14 0.36 0.36 99 1008.7
20260506135141 55 108 0.0 0.0 0.12 0.35 0.35 99 1008.6
20260506134638 55 93 0.0 0.0 0.12 0.34 0.34 99 1008.8
20260506134133 55 107 0.0 0.0 0.12 0.33 0.33 99 1008.8
20260506133631 55 130 0.0 0.0 0.12 0.32 0.32 99 1009.3
20260506133128 55 139 0.0 0.0 0.19 0.31 0.31 99 1009.4
20260506132626 55 108 0.0 0.0 0.17 0.30 0.30 99 1009.4
20260506132122 55 105 0.0 0.0 0.12 0.28 0.28 99 1009.4
20260506131620 55 101 0.0 0.0 0.19 0.27 0.27 99 1009.4
20260506131115 55 101 0.0 0.0 0.17 0.26 0.26 99 1009.6
20260506130613 55 101 0.0 0.0 0.12 0.24 0.24 99 1009.4
20260506130110 55 101 0.0 0.0 0.14 0.23 0.23 99 1009.5
20260506125608 55 97 0.0 0.0 0.19 0.22 0.22 99 1009.4
20260506125106 55 91 0.0 0.0 0.12 0.20 0.20 99 1009.4
20260506124603 55 90 0.0 0.0 0.12 0.19 0.19 99 1009.3
20260506124101 54 90 0.0 0.0 0.12 0.18 0.18 99 1009.2
20260506123558 54 89 0.0 0.0 0.12 0.17 0.17 99 1009.1
20260506123057 54 88 0.0 0.0 0.12 0.16 0.16 99 1009.0
20260506122553 54 89 0.0 0.0 0.05 0.15 0.15 99 1008.9
20260506122051 54 93 0.0 0.0 0.07 0.14 0.14 99 1009.0
20260506121549 54 93 0.0 0.0 0.07 0.14 0.14 99 1009.2
20260506121044 54 93 0.0 0.0 0.05 0.13 0.13 99 1009.1
20260506120543 54 93 0.0 0.0 0.05 0.13 0.13 99 1009.1
20260506120040 54 94 0.0 0.0 0.00 0.12 0.12 99 1009.4
20260506115538 54 87 0.0 0.0 0.07 0.12 0.12 99 1009.2
20260506115036 54 87 0.0 0.0 0.07 0.12 0.12 99 1009.3
20260506114533 54 87 0.0 0.0 0.07 0.11 0.11 99 1009.4
20260506114032 53 83 0.0 0.0 0.07 0.11 0.11 99 1009.4
20260506113529 53 101 0.0 0.0 0.05 0.10 0.10 99 1009.0
20260506113026 53 80 0.0 0.0 0.12 0.10 0.10 99 1009.2
20260506112522 53 91 0.0 0.0 0.07 0.09 0.09 99 1009.2
20260506112020 53 94 0.0 0.0 0.05 0.08 0.08 99 1009.1
20260506111518 53 94 0.0 0.0 0.12 0.08 0.08 99 1009.0
20260506111015 53 112 0.0 0.0 0.12 0.07 0.07 99 1009.2
20260506110512 53 88 0.0 0.0 0.05 0.06 0.06 99 1009.3
20260506110009 53 78 0.0 0.0 0.07 0.05 0.05 99 1009.4
20260506105505 53 77 0.0 0.0 0.07 0.05 0.05 99 1009.4
20260506105003 53 77 0.0 0.0 0.05 0.04 0.04 99 1009.3
20260506104501 53 77 0.0 0.0 0.05 0.04 0.04 99 1009.3
20260506103959 53 72 0.0 0.0 0.00 0.03 0.03 99 1009.3
20260506103455 53 79 0.0 0.0 0.07 0.03 0.03 99 1009.2
20260506102952 53 79 0.0 0.0 0.07 0.03 0.03 99 1009.1
20260506102450 53 78 0.0 0.0 0.00 0.02 0.02 99 1009.2
20260506101947 53 77 0.0 0.0 0.00 0.02 0.02 99 1009.0
20260506101444 53 75 0.0 0.0 0.05 0.02 0.02 99 1008.9
20260506100941 53 60 0.0 0.0 0.05 0.02 0.02 99 1008.8
20260506100439 53 69 0.0 0.0 0.00 0.01 0.01 99 1008.9
20260506095937 53 78 0.0 0.0 0.00 0.01 0.01 99 1008.7
20260506095435 53 77 0.0 0.0 0.07 0.01 0.01 99 1008.8
20260506094931 53 78 0.0 0.0 0.07 0.01 0.01 99 1008.8
20260506094430 53 78 0.0 0.0 0.00 0.00 0.00 99 1008.8
20260506093927 53 78 0.0 0.0 0.00 0.00 0.00 99 1008.9
20260506093425 53 53 0.0 0.0 0.00 0.00 0.00 99 1008.8
20260506092923 53 32 0.0 0.0 0.00 0.00 0.00 99 1008.7
20260506092420 53 75 0.0 0.0 0.00 0.00 0.00 99 1008.9
20260506091916 53 80 0.0 0.0 0.00 0.00 0.00 99 1008.7
20260506091415 53 80 0.0 0.0 0.00 0.00 0.00 99 1008.6
20260506090912 53 80 0.0 0.0 0.00 0.00 0.00 99 1008.5
20260506090409 53 80 0.0 0.0 0.00 0.00 0.00 99 1008.6
20260506085906 53 80 0.0 0.0 0.00 0.00 0.00 99 1008.7
20260506085403 53 80 0.0 0.0 0.00 0.00 0.00 99 1008.7
20260506084859 53 60 1.0 1.0 0.00 0.00 0.00 99 1008.7
20260506084355 53 80 0.0 0.0 0.00 0.00 0.00 99 1009.0
20260506083852 53 80 0.0 0.0 0.00 0.00 0.00 99 1008.8
20260506083350 53 80 0.0 0.0 0.00 0.00 0.00 99 1008.9
20260506082847 53 77 0.0 1.0 0.00 0.00 0.00 99 1009.1
20260506082344 53 70 1.0 1.0 0.00 0.00 0.00 99 1008.9
20260506081839 53 79 1.0 1.0 0.00 0.00 0.00 99 1008.6
20260506081338 53 79 0.0 0.0 0.00 0.00 0.00 99 1008.7
20260506080835 53 79 0.0 0.0 0.00 0.00 0.00 99 1008.6
20260506080331 53 69 1.0 1.0 0.00 0.00 0.00 99 1008.6
20260506073315 53 82 0.0 0.0 0.00 0.00 0.00 99 1008.8
20260506072812 53 77 0.0 0.0 0.00 0.00 0.00 99 1008.9
20260506072309 53 83 1.0 2.0 0.00 0.00 0.00 99 1009.0
20260506071807 53 84 0.0 1.0 0.00 0.00 0.00 99 1008.9
20260506071306 52 109 0.0 0.0 0.00 0.00 0.00 99 1008.9
20260506070802 53 93 1.0 3.0 0.00 0.00 0.00 99 1009.0
20260506070259 53 82 0.0 0.0 0.00 0.00 0.00 99 1009.0
20260506062236 52 78 0.0 0.0 0.00 0.00 0.00 99 1009.3
20260506061731 53 54 1.0 1.0 0.00 0.00 0.00 99 1009.3
20260506061230 53 79 0.0 1.0 0.00 0.00 0.00 99 1009.4
20260506060728 53 78 1.0 2.0 0.00 0.00 0.00 99 1009.7
20260506060225 53 88 1.0 1.0 0.00 0.00 0.00 99 1009.8
20260506051156 54 64 1.0 1.0 0.00 0.00 0.00 99 1010.4
20260506050654 54 14 1.0 2.0 0.00 0.00 0.00 99 1010.2
20260506050146 53 72 1.0 1.0 0.00 0.00 0.00 99 1010.1
20260506044637 55 40 1.0 2.0 0.00 0.00 0.00 99 1010.1
20260506044134 54 35 2.0 2.0 0.00 0.00 0.00 99 1010.3
20260506043631 55 63 1.0 1.0 0.00 0.00 0.00 99 1010.4
20260506043129 55 62 1.0 1.0 0.00 0.00 0.00 99 1010.3
20260506042628 55 90 0.0 0.0 0.00 0.00 0.00 99 1010.4
20260506042125 55 67 0.0 1.0 0.00 0.00 0.00 99 1010.6
20260506041624 55 13 2.0 2.0 0.00 0.00 0.00 99 1010.4
20260506041120 55 3 3.0 3.0 0.00 0.00 0.00 99 1010.6
20260506040618 55 67 1.0 1.0 0.00 0.00 0.00 99 1010.7
20260506040115 55 70 0.0 0.0 0.00 0.06 0.06 98 1010.6
20260506035611 55 70 0.0 1.0 0.00 0.06 0.06 98 1010.6
20260506035108 55 17 2.0 2.0 0.00 0.06 0.06 98 1010.7
20260506034605 55 32 2.0 2.0 0.00 0.06 0.06 98 1010.5
20260506034102 55 68 1.0 1.0 0.00 0.06 0.06 99 1010.4
20260506033559 55 77 0.0 0.0 0.00 0.06 0.06 98 1010.6
20260506033056 55 66 1.0 1.0 0.00 0.06 0.06 98 1010.5
20260506032553 55 60 1.0 1.0 0.00 0.06 0.06 99 1010.4
20260506032050 55 57 1.0 1.0 0.00 0.06 0.06 98 1010.6
20260506031548 55 53 2.0 2.0 0.00 0.06 0.06 98 1010.4
20260506031044 55 80 1.0 1.0 0.00 0.06 0.06 98 1010.4
20260506030543 55 72 2.0 2.0 0.00 0.06 0.06 98 1010.2
20260506030040 56 113 1.0 1.0 0.00 0.06 0.06 97 1010.2
20260506025537 56 56 1.0 1.0 0.00 0.06 0.06 98 1010.4
20260506025033 56 57 1.0 1.0 0.00 0.06 0.06 98 1010.0
20260506024530 56 48 1.0 1.0 0.00 0.06 0.06 97 1010.2
20260506024026 56 41 2.0 2.0 0.00 0.06 0.06 98 1010.1
20260506023522 57 6 2.0 2.0 0.00 0.06 0.06 97 1010.1
20260506023020 57 55 1.0 1.0 0.00 0.06 0.06 97 1010.0
20260506022517 57 24 2.0 2.0 0.00 0.06 0.06 97 1010.1
20260506022015 57 60 1.0 2.0 0.00 0.06 0.06 97 1010.1
20260506021512 57 60 1.0 2.0 0.00 0.06 0.06 97 1010.1
20260506021009 57 68 1.0 1.0 0.00 0.06 0.06 97 1009.8
20260506020507 57 59 1.0 1.0 0.00 0.06 0.06 97 1009.8
20260506020004 58 71 0.0 1.0 0.00 0.06 0.06 96 1010.0
20260506015501 58 70 1.0 1.0 0.00 0.06 0.06 96 1010.0
20260506014958 58 71 0.0 0.0 0.00 0.06 0.06 96 1009.8
20260506014455 58 71 0.0 0.0 0.00 0.06 0.06 96 1010.0
20260506013951 58 71 1.0 3.0 0.00 0.06 0.06 96 1009.9
20260506013449 58 71 0.0 0.0 0.00 0.06 0.06 96 1010.0
20260506012945 58 69 1.0 2.0 0.00 0.06 0.06 96 1009.7
20260506012442 58 66 2.0 3.0 0.00 0.06 0.06 96 1009.8
20260506011939 59 80 0.0 0.0 0.00 0.06 0.06 96 1009.8
20260506011436 59 80 0.0 0.0 0.00 0.06 0.06 95 1009.7
20260506010933 59 80 0.0 0.0 0.00 0.06 0.06 95 1009.5
20260506010432 59 75 2.0 2.0 0.00 0.06 0.06 95 1009.5
20260506005927 60 82 0.0 0.0 0.00 0.06 0.06 95 1009.5
20260506005426 60 72 0.0 0.0 0.00 0.06 0.06 94 1009.6
20260506004920 60 72 0.0 0.0 0.00 0.06 0.06 94 1009.4
20260506004419 60 72 0.0 0.0 0.00 0.06 0.06 94 1009.2
20260506003914 60 72 2.0 2.0 0.00 0.06 0.06 94 1009.3
20260506003411 60 72 0.0 0.0 0.00 0.06 0.06 94 1009.3
20260506002908 60 68 3.0 3.0 0.00 0.06 0.06 94 1009.4
20260506002404 60 68 3.0 3.0 0.00 0.06 0.06 94 1009.2
20260506001859 61 73 3.0 3.0 0.00 0.06 0.06 94 1009.4
20260506001356 61 72 0.0 0.0 0.00 0.06 0.06 93 1009.3
20260506000854 61 74 2.0 2.0 0.00 0.06 0.06 93 1009.2
20260506000353 61 75 2.0 5.0 0.00 0.06 0.06 93 1009.5
20260505235848 61 66 2.0 2.0 0.00 0.06 0.06 93 1009.3
20260505235345 62 61 2.0 3.0 0.00 0.06 0.06 92 1009.5
20260505234842 62 78 1.0 1.0 0.00 0.06 0.06 92 1009.4
20260505234340 62 78 0.0 0.0 0.00 0.06 0.06 92 1009.2
20260505233836 62 78 1.0 1.0 0.00 0.06 0.06 91 1009.0
20260505233335 62 78 2.0 2.0 0.00 0.06 0.06 91 1009.3
20260505232832 63 78 0.0 0.0 0.00 0.06 0.06 90 1009.4
20260505232330 63 78 0.0 0.0 0.00 0.06 0.06 90 1009.4
20260505231825 63 78 0.0 0.0 0.00 0.06 0.06 89 1009.2
20260505231324 63 78 0.0 1.0 0.00 0.06 0.06 89 1009.0
20260505230822 63 78 2.0 2.0 0.00 0.06 0.06 88 1009.0
20260505230318 64 79 1.0 2.0 0.00 0.06 0.06 87 1009.0
20260505225815 64 97 0.0 0.0 0.00 0.06 0.06 86 1009.0
20260505225313 64 97 0.0 0.0 0.00 0.06 0.06 85 1009.0
20260505224807 65 95 2.0 2.0 0.00 0.06 0.06 84 1008.8
20260505224306 65 48 3.0 5.0 0.00 0.06 0.06 81 1008.9
20260505223803 65 53 3.0 5.0 0.00 0.06 0.06 80 1008.8
20260505223300 65 39 3.0 5.0 0.00 0.06 0.06 83 1008.8
20260505222755 65 3 4.0 5.0 0.00 0.06 0.06 87 1008.7
20260505222251 66 12 3.0 3.0 0.00 0.06 0.06 84 1008.3
20260505221749 65 68 2.0 3.0 0.00 0.06 0.06 76 1008.1
20260505221245 64 27 2.0 2.0 0.00 0.06 0.06 84 1008.3
20260505220742 65 57 3.0 3.0 0.00 0.06 0.06 86 1008.0
20260505220239 66 31 3.0 3.0 0.00 0.06 0.06 86 1008.1
20260505215737 66 74 2.0 3.0 0.00 0.06 0.06 81 1008.1
20260505215235 66 49 3.0 5.0 0.00 0.06 0.06 80 1008.2
20260505214733 66 116 3.0 3.0 0.00 0.06 0.06 80 1008.3
20260505214230 67 151 4.0 5.0 0.00 0.06 0.06 80 1008.3
20260505213727 67 165 3.0 5.0 0.00 0.06 0.06 79 1008.4
20260505213224 66 135 2.0 3.0 0.00 0.06 0.06 77 1008.5
20260505212720 65 60 3.0 3.0 0.00 0.06 0.06 79 1008.6
20260505212218 64 36 2.0 2.0 0.00 0.06 0.06 83 1008.7